• Join FlightAware (Why Join?)
  • Login
  • US Flag 
04:29PM EDT


 

Airport Tracker/Info


-or-


 

Live Flight TrackerFlight Track Log ✈ AAY843 ✈ 03-Jul-2014 ✈ KSYR - KPIE

Flight Track Log - Related Links

Times and Time Zones

All times are in EDT time to prevent confusion due to time zone crossing. See the AAY843 flight status page for this flight to view local times or setup timezone preferences in your user account.

Time Position Orientation Groundspeed Altitude Reporting Facility
EDT Latitude Longitude Course Direction KTS MPH feet Rate Location/Type
11:23AM 43.1081 -76.1422 257° West 182 209 1,500  Level Boston Center
11:24AM 43.0922 -76.2364 257° West 231 266 3,300 2,100 Climbing Boston Center
11:26AM 42.9903 -76.3239 212° Southwest 242 278 7,800 2,460 Climbing Boston Center
11:27AM 42.9250 -76.3781 211° Southwest 260 299 10,000 1,680 Climbing Boston Center
11:29AM 42.7564 -76.5108 210° Southwest 361 415 13,000 1,800 Climbing Boston Center
11:30AM 42.6675 -76.5844 211° Southwest 369 425 15,700 1,560 Climbing Boston Center
11:32AM 42.5375 -76.6872 210° Southwest 382 440 17,000 1,020 Climbing Cleveland Center
11:33AM 42.4217 -76.7711 208° Southwest 387 445 18,400 1,500 Climbing Cleveland Center
11:34AM 42.2681 -76.8894 210° Southwest 396 456 21,000 1,500 Climbing Boston Center
11:35AM 42.1703 -76.9647 210° Southwest 398 458 22,400 1,260 Climbing Boston Center
11:36AM 42.0700 -77.0439 210° Southwest 411 473 23,700 1,560 Climbing Boston Center
11:37AM 41.9731 -77.1261 212° Southwest 411 473 25,700 1,680 Climbing Boston Center
11:38AM 41.8758 -77.2111 213° Southwest 416 479 27,200 1,320 Climbing New York Center
11:39AM 41.7842 -77.2886 212° Southwest 405 466 28,500 1,020 Climbing New York Center
11:40AM 41.6861 -77.3650 210° Southwest 405 466 29,300 420 Climbing New York Center
11:43AM 41.4461 -77.5617 212° Southwest 400 460 30,000 300 Climbing Cleveland Center
11:45AM 41.2569 -77.7161 212° Southwest 401 461 30,800 480 Climbing Cleveland Center
11:47AM 41.0489 -77.8839 208° Southwest 400 460 32,000 360 Climbing Cleveland Center
11:48AM 40.9544 -77.9614 212° Southwest 399 459 32,000  Level Cleveland Center
11:49AM 40.8522 -78.0236 205° Southwest 403 464 32,000  Level Cleveland Center
11:50AM 40.7450 -78.0686 198° South 407 468 32,000  Level Cleveland Center
11:51AM 40.6369 -78.1128 197° South 407 468 32,000  Level Cleveland Center
11:53AM 40.4014 -78.2142 198° South 406 467 32,000  Level Cleveland Center
11:54AM 40.2956 -78.2642 200° South 406 467 32,000  Level Cleveland Center
11:55AM 40.1875 -78.3111 198° South 407 468 32,000  Level Cleveland Center
11:58AM 39.9389 -78.4167 197° South 407 468 32,000  Level Washington Center
11:58AM 39.8439 -78.4553 197° South 407 468 32,000  Level Cleveland Center
11:59AM 39.7386 -78.5017 199° South 407 468 32,000  Level Cleveland Center
12:01PM 39.6233 -78.5497 199° South 413 475 32,000  Level Washington Center
12:02PM 39.5158 -78.5911 197° South 408 470 32,000  Level Washington Center
12:03PM 39.4147 -78.6331 198° South 407 468 32,000  Level Cleveland Center
12:05PM 39.1936 -78.7303 199° South 408 470 32,000  Level Washington Center
12:07PM 38.9611 -78.8239 197° South 407 468 32,000  Level Cleveland Center
12:08PM 38.8533 -78.8675 197° South 406 467 32,000  Level Cleveland Center
12:12PM 38.4281 -79.0450 198° South 408 470 32,000  Level Washington Center
12:13PM 38.3203 -79.0906 198° South 408 470 32,000  Level Washington Center
12:14PM 38.2128 -79.1356 198° South 408 470 32,000  Level Washington Center
12:15PM 38.1053 -79.1753 196° South 408 470 32,000  Level Washington Center
12:16PM 37.9975 -79.2178 197° South 408 470 32,000  Level Washington Center
12:17PM 37.9064 -79.2382 198° South  Level FlightAware Approximate
12:17PM 37.8897 -79.2625 198° South 408 470 32,000  Level Washington Center
12:19PM 37.6808 -79.3442 197° South 408 470 32,000  Level Washington Center
12:21PM 37.4633 -79.4275 197° South 413 475 32,000  Level Washington Center
12:22PM 37.3492 -79.4717 197° South 424 488 32,000  Level Washington Center
12:23PM 37.2392 -79.5156 198° South 424 488 32,000  Level Washington Center
12:25PM 37.0194 -79.6031 198° South 419 482 32,000  Level Washington Center
12:26PM 36.9075 -79.6442 196° South 419 482 32,000  Level Washington Center
12:27PM 36.7953 -79.6900 198° South 424 488 32,000  Level Washington Center
12:28PM 36.6853 -79.7336 198° South 424 488 32,000  Level Washington Center
12:30PM 36.4653 -79.8175 197° South 424 488 32,000  Level Washington Center
12:30PM 36.3808 -79.8481 196° South 425 489 32,000  Level Atlanta Center
12:31PM 36.2800 -79.8844 196° South 431 496 32,000  Level Atlanta Center
12:32PM 36.1667 -79.9289 198° South 431 496 32,000  Level Atlanta Center
12:34PM 35.9425 -80.0247 202° Southwest 431 496 32,000  Level Atlanta Center
12:35PM 35.8361 -80.0839 204° Southwest 431 496 32,000  Level Atlanta Center
12:36PM 35.7253 -80.1403 202° Southwest 431 496 32,000  Level Atlanta Center
12:37PM 35.6161 -80.1917 201° Southwest 431 496 32,000  Level Atlanta Center
12:38PM 35.5072 -80.2450 202° Southwest 431 496 32,000  Level Atlanta Center
12:39PM 35.3922 -80.3014 202° Southwest 431 496 32,000  Level Atlanta Center
12:41PM 35.1722 -80.4131 202° Southwest 435 501 32,000  Level Atlanta Center
12:44PM 34.8147 -80.5917 202° Southwest 433 498 32,000  Level Jacksonville Center
12:46PM 34.5872 -80.7011 202° Southwest 437 503 32,000  Level Jacksonville Center
12:47PM 34.4714 -80.7619 203° Southwest 453 521 32,000  Level Jacksonville Center
12:49PM 34.2542 -80.8653 201° Southwest 437 503 32,000  Level Jacksonville Center
12:50PM 34.1403 -80.9206 202° Southwest 431 496 32,000  Level Jacksonville Center
12:51PM 34.0283 -80.9731 201° Southwest 431 496 32,000  Level Jacksonville Center
12:54PM 33.6803 -81.1456 202° Southwest 436 502 32,000  Level Jacksonville Center
12:55PM 33.5683 -81.2000 202° Southwest 436 502 32,000  Level Jacksonville Center
12:57PM 33.3381 -81.3114 202° Southwest 441 507 32,000  Level Jacksonville Center
12:59PM 33.1058 -81.4244 202° Southwest 452 520 32,000  Level Jacksonville Center
01:02PM 32.7569 -81.5958 201° Southwest 452 520 32,000  Level Jacksonville Center
01:03PM 32.6531 -81.6442 201° Southwest 447 514 32,000  Level Jacksonville Center
01:04PM 32.5264 -81.7075 203° Southwest 447 514 32,000  Level Jacksonville Center
01:06PM 32.2994 -81.7867 191° South 457 526 32,000  Level Jacksonville Center
01:07PM 32.1578 -81.8128 189° South 463 533 32,000  Level Jacksonville Center
01:08PM 32.2654 -81.8124 201° Southwest  Level FlightAware Approximate
01:08PM 32.0453 -81.8361 190° South 463 533 32,000  Level Jacksonville Center
01:09PM 31.9078 -81.8672 191° South 469 540 32,000  Level Jacksonville Center
01:14PM 31.2928 -82.0028 191° South 469 540 32,000  Level Jacksonville Center
01:15PM 31.1697 -82.0306 191° South 464 534 32,000  Level Jacksonville Center
01:17PM 30.9194 -82.0814 190° South 464 534 32,000  Level Jacksonville Center
01:19PM 30.6672 -82.1367 190° South 464 534 32,000  Level Jacksonville Center
01:20PM 30.7921 -82.0981 191° South  Level FlightAware Approximate
01:21PM 30.4067 -82.1869 189° South 464 534 32,000  Level Jacksonville Center
01:23PM 30.1583 -82.2367 190° South 457 526 32,000  Level Jacksonville Center
01:25PM 30.0329 -82.2563 188° South  Level FlightAware Approximate
01:25PM 29.9144 -82.2936 188° South 457 526 32,000  Level Jacksonville Center
01:26PM 29.7933 -82.3181 190° South 452 520 31,900 -1,560 Descending Jacksonville Center
01:28PM 29.6203 -82.3519 190° South 448 516 28,100 -2,400 Descending Miami Center
01:29PM 29.4156 -82.3419 178° South 447 514 24,800 -2,400 Descending Jacksonville Center
01:32PM 29.0953 -82.2983 174° South 440 506 18,300 -2,400 Descending Miami Center
01:33PM 28.9781 -82.2900 176° South 424 488 15,900 -2,160 Descending Miami Center
01:34PM 28.8628 -82.2783 175° South 399 459 13,900 -1,740 Descending Miami Center
01:35PM 28.8000 -82.2667 171° South 365 420 13,100 -1,200 Descending Tampa TRACON
01:36PM 28.6833 -82.2500 173° South 360 414 11,900 -1,080 Descending Tampa TRACON
01:37PM 28.5833 -82.2500 180° South 359 413 10,900 -540 Descending Tampa TRACON
01:40PM 28.4333 -82.4667 232° Southwest 334 384 9,900 -600 Descending Tampa TRACON
01:41PM 28.4167 -82.5500 257° West 279 321 8,700 -1,140 Descending Tampa TRACON
01:42PM 28.3192 -82.6386 219° Southwest 288 331 7,000 -1,500 Descending Miami Center
01:43PM 28.2269 -82.6489 186° South 278 320 4,800 -1,860 Descending Miami Center
01:44PM 28.1564 -82.6522 182° South 261 300 3,200 -1,260 Descending Miami Center
01:46PM 28.0667 -82.6667 188° South 223 257 2,000 -720 Descending Tampa TRACON
01:49PM 27.9422 -82.6953 187° South 174 200 400 -600 Descending Miami Center